Wind_Speed
43 43 38 43 44 45 43 47 48 50 51 51 51 54 55 55 56 51 46 50 55 59 61 65 62 58 45 45 48 51 54 58 61 63 64 67 65 60 58 58 63 67 66
46 46 42 43 47 47 49 49 50 54 54 52 52 59 59 59 51 59 53 58 61 63 64 64 54 44 48 50 50 53 57 60 63 64 67 67 60 60 63 65 68 68 68
44 44 40 44 42 46 51 52 54 60 60 53 57 58 54 51 60 55 57 69 64 60 58 46 47 50 50 52 54 57 59 62 65 67 67 65 62 64 67 69 70 71 72
47 51 46 41 47 43 55 56 57 57 58 53 60 54 56 58 56 61 64 63 57 51 48 48 48 52 54 55 58 60 64 66 67 69 68 62 65 70 71 71 71 72 68
47 49 49 52 55 53 59 46 49 51 50 54 53 57 55 56 58 59 58 54 46 47 49 50 53 56 56 59 62 63 65 68 70 70 65 67 71 73 75 76 74 72 69
46 56 51 51 49 51 49 48 51 50 54 58 54 57 56 54 50 48 48 49 51 50 52 54 58 60 62 63 65 67 70 71 71 69 70 74 73 77 78 77 74 73 71
48 48 52 49 52 51 56 53 50 52 49 50 51 50 48 46 44 45 49 50 49 51 55 58 60 61 63 65 68 69 70 71 71 74 77 76 80 80 79 76 74 75 77
50 51 53 52 55 60 53 49 47 41 39 36 37 39 43 46 49 51 51 52 54 57 60 61 61 64 67 69 69 68 70 73 75 80 80 80 79 80 76 74 76 78 79
44 50 47 44 47 45 44 43 40 40 40 37 39 44 46 49 51 54 56 58 58 58 61 63 65 65 65 70 72 73 75 77 79 81 80 79 78 77 75 75 78 82 84
32 33 33 32 31 29 30 29 29 33 38 40 42 45 49 52 55 57 58 58 59 62 62 63 64 68 72 75 77 79 77 78 79 78 76 75 77 77 79 79 81 86 90
19 16 15 16 20 26 30 34 36 38 41 44 47 51 54 55 57 58 60 62 63 62 64 67 70 73 77 79 80 80 78 77 77 76 75 73 74 78 84 87 89 92 95
13 17 22 25 27 30 34 36 39 43 46 48 50 52 53 56 59 62 62 64 66 68 70 72 75 77 77 78 77 76 76 77 76 77 78 79 81 83 88 93 95 96 96
21 23 26 29 31 35 38 41 44 46 47 49 52 55 57 59 61 64 68 69 72 75 76 76 76 75 72 72 75 76 79 81 83 85 88 90 92 92 92 93 95 96 96
27 29 33 36 38 39 40 43 46 50 52 52 53 55 60 63 66 69 72 73 74 74 74 72 72 73 75 76 77 80 84 87 90 93 95 97 98 97 97 97 98 99 99
32 32 33 36 39 42 45 47 49 50 52 56 59 62 65 67 69 70 71 70 69 69 70 73 76 78 81 84 86 88 91 94 96 97 98 99 99 100 102 102 103 103 102
35 38 41 43 44 45 48 53 55 58 60 62 64 65 67 69 67 66 66 67 71 75 78 82 85 88 89 92 94 96 98 100 101 103 104 105 106 107 108 107 105 102 99
42 43 43 45 49 53 55 57 60 63 66 67 67 67 67 66 67 69 72 76 81 85 89 92 94 97 99 101 103 104 105 107 108 111 114 117 116 113 109 105 101 98 93
43 47 51 54 56 59 59 61 61 61 61 60 62 65 67 70 74 79 83 87 90 94 96 99 102 105 106 108 110 112 115 117 120 123 125 123 116 107 101 97 94 90 85
51 53 55 57 59 61 63 64 65 66 64 64 65 68 73 78 83 88 92 95 98 101 103 105 108 110 114 118 122 125 128 129 131 130 126 116 103 94 91 88 84 78 72
62 64 65 65 66 68 68 68 68 66 67 70 74 79 83 89 93 96 100 102 103 105 108 113 118 122 127 131 134 136 136 132 125 116 105 93 85 82 78 73 67 60 55
62 63 65 67 68 68 67 66 66 69 73 79 84 89 93 96 100 102 104 108 113 119 124 127 129 132 136 139 138 130 121 110 100 89 79 71 65 59 53 49 46 43 39
64 65 65 65 66 65 66 68 72 77 82 86 90 94 97 100 103 108 114 119 124 128 132 135 135 131 127 120 111 100 88 76 66 57 52 46 41 37 35 32 30 29 28
63 63 62 62 63 66 71 76 80 84 87 91 95 99 104 109 113 118 122 125 127 129 126 119 111 103 97 88 79 70 60 51 45 39 33 29 26 23 22 22 21 20 19
59 59 62 65 69 73 77 81 85 89 93 96 101 105 109 112 116 119 122 121 115 108 101 98 94 87 77 67 57 49 41 33 26 21 19 17 15 14 14 14 14 14 12
61 64 66 70 74 78 82 86 91 95 98 102 105 107 110 113 116 114 106 98 94 96 96 92 82 70 59 49 40 33 26 19 16 13 11 10 9 8 8 9 9 8 6
63 68 72 76 80 84 89 91 95 98 100 103 105 107 108 107 101 91 88 90 93 95 91 81 68 56 44 36 29 23 18 14 11 7 5 5 5 6 7 7 6 6 7
Wind_Direction
245 248 246 238 239 248 251 254 254 256 259 264 263 269 271 275 281 285 279 279 277 278 274 278 274 275 282 292 301 310 306 303 305 302 303 306 304 300 299 300 301 301 301
243 242 248 252 237 245 251 254 257 261 261 264 267 271 276 276 279 274 276 267 275 279 276 271 279 288 296 304 309 301 300 299 301 303 304 304 301 299 301 302 301 301 303
250 249 250 251 246 250 253 256 259 258 262 264 267 273 276 277 274 274 270 276 278 271 271 281 292 300 306 306 304 297 298 299 300 302 304 301 300 299 300 300 301 302 303
242 241 252 246 251 248 258 260 261 268 263 260 263 268 272 269 271 273 274 273 266 270 286 298 305 303 305 303 299 297 298 299 300 304 303 300 301 299 300 300 300 299 299
251 246 243 241 249 246 258 248 268 264 261 258 260 260 261 262 270 269 264 264 281 297 302 303 304 305 300 297 297 297 297 299 302 301 300 300 301 300 299 298 299 297 295
240 252 240 240 237 250 258 260 259 258 257 257 252 254 264 269 265 264 277 292 301 304 305 305 302 300 299 297 295 295 298 300 299 300 300 301 299 300 298 299 298 294 294
244 247 247 244 251 252 249 252 246 251 253 253 260 265 259 259 276 297 302 305 305 303 302 300 299 298 296 295 295 298 298 300 301 301 300 300 299 297 299 297 296 296 296
243 247 247 250 246 252 251 249 247 250 254 256 261 272 294 300 301 301 301 302 303 302 300 298 297 297 295 295 297 299 301 300 300 299 299 299 299 299 298 298 297 297 299
249 243 248 240 242 242 243 245 243 242 251 283 304 303 300 299 300 300 302 301 301 299 299 297 296 296 296 298 298 299 298 299 297 298 299 300 299 297 297 297 299 300 301
226 227 225 226 229 239 247 265 289 300 303 302 298 298 297 297 297 297 298 299 297 297 296 296 297 298 297 297 298 298 298 297 297 298 298 298 299 299 300 300 300 301 302
227 245 264 282 300 308 309 306 301 298 296 297 298 298 298 298 297 297 297 297 297 297 297 298 298 298 299 299 298 298 297 296 296 297 297 297 298 299 300 301 302 302 302
312 311 312 307 301 297 295 296 297 298 297 297 296 296 295 296 297 297 298 298 298 297 297 297 297 297 296 296 296 298 298 297 297 297 297 298 300 300 300 301 301 301 302
302 299 296 295 295 296 297 296 295 294 295 296 296 297 298 298 297 298 298 298 298 298 297 297 295 294 294 296 298 298 298 299 299 300 300 300 300 300 300 300 300 301 302
305 302 301 300 300 299 299 298 297 297 297 298 297 296 296 297 298 298 297 297 297 297 296 297 297 298 298 298 299 300 299 299 299 300 300 300 301 302 301 301 301 302 302
304 303 302 300 298 297 297 296 297 297 297 297 298 298 298 297 296 296 296 296 296 297 297 298 299 300 300 300 300 299 299 299 299 299 300 300 301 301 301 301 301 301 299
306 304 302 301 302 303 303 304 303 303 302 301 299 298 298 299 299 300 300 302 302 302 301 302 301 300 300 300 300 300 301 301 301 302 302 301 301 301 300 299 299 297 295
305 306 307 307 305 305 304 304 304 305 305 305 305 306 305 304 305 305 304 302 303 303 303 302 303 303 303 303 303 302 302 301 301 301 300 300 300 299 297 295 293 291 291
305 305 305 305 306 305 306 305 304 304 303 303 304 304 304 303 303 303 304 304 304 304 304 304 303 303 302 302 302 301 300 299 298 299 299 299 297 293 290 289 288 288 288
311 310 309 308 307 307 308 309 309 308 306 305 303 304 304 304 304 305 305 305 304 304 304 303 303 302 301 301 301 300 300 300 299 298 298 296 293 289 285 285 285 286 286
313 314 314 313 311 310 308 307 305 304 304 303 303 304 304 305 305 305 304 304 304 304 303 301 300 301 301 302 301 301 300 300 298 297 295 292 287 284 283 283 283 283 283
309 309 308 307 307 306 305 305 305 304 305 306 306 306 306 306 306 306 306 305 304 304 304 304 304 303 302 303 303 302 301 299 297 295 292 288 284 282 280 279 279 280 281
309 309 310 310 309 308 307 306 307 307 307 307 307 307 308 308 308 308 309 308 308 309 309 309 309 308 307 306 304 303 301 300 299 296 291 287 284 280 276 273 272 271 271
311 311 310 309 308 308 308 309 309 308 308 309 309 310 311 312 312 312 313 313 313 314 313 312 312 311 310 309 307 306 304 301 298 295 291 287 282 276 269 265 263 262 262
311 310 310 311 312 311 310 310 311 312 313 313 313 314 315 315 316 317 317 317 317 316 316 317 317 316 313 311 310 308 305 304 300 294 287 282 277 268 262 258 254 253 255
314 314 312 311 312 313 312 313 315 315 315 316 317 317 318 319 319 319 319 319 320 322 323 322 321 319 316 313 312 313 311 304 295 288 286 280 270 258 253 249 242 236 224
313 314 314 315 316 316 316 316 316 317 318 318 319 320 320 321 321 320 320 323 325 325 325 324 323 320 317 316 314 312 307 298 291 287 274 260 244 227 223 217 202 194 194
Height
5678 5680 5683 5685 5688 5690 5692 5694 5694 5694 5693 5694 5694 5691 5688 5686 5685 5681 5679 5676 5675 5671 5667 5662 5657 5651 5646 5641 5637 5632 5628 5624 5620 5612 5605 5597 5589 5582 5574 5567 5561 5554 5547
5670 5673 5676 5677 5679 5681 5683 5685 5685 5684 5682 5681 5681 5679 5677 5676 5674 5672 5669 5666 5663 5659 5655 5649 5644 5639 5635 5628 5623 5621 5616 5610 5603 5598 5590 5582 5576 5567 5560 5551 5544 5538 5530
5664 5667 5670 5671 5672 5673 5674 5674 5675 5672 5671 5671 5668 5668 5668 5666 5664 5661 5658 5654 5650 5645 5642 5636 5630 5626 5620 5616 5612 5607 5602 5594 5586 5582 5575 5565 5558 5550 5544 5538 5530 5522 5514
5659 5661 5661 5658 5664 5665 5665 5663 5662 5661 5659 5660 5659 5658 5656 5654 5651 5648 5645 5642 5639 5635 5629 5621 5616 5613 5608 5603 5598 5592 5585 5578 5570 5564 5557 5551 5543 5532 5527 5521 5514 5502 5497
5649 5650 5652 5652 5654 5653 5654 5653 5653 5652 5650 5649 5648 5647 5644 5640 5638 5635 5632 5630 5625 5620 5614 5609 5606 5601 5595 5588 5583 5576 5569 5561 5554 5547 5540 5534 5526 5518 5510 5504 5496 5488 5483
5637 5637 5640 5643 5643 5645 5644 5643 5643 5641 5641 5638 5635 5634 5631 5628 5627 5625 5621 5616 5612 5606 5602 5598 5594 5586 5579 5572 5566 5559 5552 5545 5537 5528 5522 5515 5507 5498 5491 5484 5477 5470 5466
5630 5632 5633 5631 5632 5632 5633 5632 5631 5629 5628 5627 5625 5622 5620 5617 5616 5611 5606 5603 5600 5595 5590 5584 5577 5570 5563 5556 5549 5543 5537 5527 5518 5509 5504 5495 5491 5480 5474 5466 5458 5453 5445
5622 5621 5622 5621 5621 5622 5621 5621 5621 5619 5618 5617 5614 5611 5606 5603 5601 5598 5596 5592 5587 5580 5574 5568 5562 5555 5546 5538 5533 5526 5519 5510 5499 5488 5483 5478 5467 5461 5452 5446 5436 5430 5424
5611 5612 5613 5612 5612 5612 5611 5610 5609 5607 5606 5604 5601 5599 5597 5594 5591 5587 5582 5578 5572 5566 5559 5552 5545 5537 5528 5519 5514 5507 5501 5494 5481 5474 5465 5456 5449 5442 5435 5429 5418 5410 5403
5603 5604 5605 5605 5606 5605 5605 5604 5602 5600 5599 5596 5594 5590 5587 5582 5578 5572 5567 5561 5556 5551 5545 5537 5528 5521 5512 5501 5492 5485 5480 5471 5463 5456 5449 5441 5429 5423 5412 5405 5399 5387 5375
5601 5600 5599 5599 5598 5597 5596 5596 5595 5593 5590 5588 5584 5579 5574 5568 5562 5557 5551 5546 5540 5536 5528 5521 5513 5502 5492 5482 5472 5465 5457 5449 5443 5435 5429 5423 5418 5405 5389 5378 5373 5364 5352
5597 5597 5596 5596 5595 5594 5592 5590 5587 5585 5581 5577 5571 5565 5559 5553 5547 5541 5535 5529 5522 5517 5509 5502 5494 5485 5477 5467 5455 5445 5436 5428 5421 5413 5406 5401 5395 5387 5373 5358 5347 5337 5327
5597 5595 5594 5593 5591 5588 5585 5582 5578 5573 5568 5563 5557 5551 5543 5537 5531 5524 5516 5509 5501 5494 5487 5481 5474 5466 5457 5448 5438 5428 5418 5407 5397 5389 5381 5373 5366 5358 5350 5338 5323 5313 5302
5593 5591 5588 5585 5581 5577 5572 5568 5564 5559 5553 5548 5543 5537 5531 5522 5514 5505 5498 5490 5481 5473 5466 5459 5451 5443 5435 5426 5417 5408 5398 5387 5374 5363 5352 5343 5335 5326 5318 5310 5299 5289 5278
5584 5581 5578 5575 5572 5568 5563 5557 5551 5545 5540 5534 5527 5520 5512 5504 5496 5487 5479 5471 5461 5453 5445 5437 5429 5420 5413 5403 5395 5385 5374 5362 5352 5340 5327 5315 5308 5298 5287 5279 5270 5262 5252
5575 5571 5567 5563 5557 5552 5546 5539 5533 5526 5520 5514 5507 5499 5491 5482 5472 5464 5456 5445 5435 5428 5421 5411 5404 5393 5384 5375 5366 5357 5345 5333 5320 5309 5300 5287 5277 5269 5257 5249 5240 5231 5223
5565 5560 5555 5550 5545 5539 5533 5527 5516 5504 5495 5488 5481 5472 5465 5459 5449 5440 5434 5426 5414 5405 5395 5385 5375 5363 5353 5342 5332 5323 5315 5303 5291 5278 5268 5256 5244 5233 5224 5218 5210 5202 5195
5555 5550 5544 5538 5531 5523 5515 5507 5500 5494 5487 5478 5466 5458 5448 5440 5431 5422 5411 5401 5392 5379 5367 5355 5345 5335 5324 5312 5301 5291 5282 5271 5258 5243 5233 5222 5209 5196 5189 5185 5181 5176 5172
5538 5532 5527 5521 5515 5506 5497 5487 5478 5469 5464 5456 5450 5441 5431 5421 5410 5398 5386 5374 5364 5352 5341 5330 5316 5304 5292 5279 5266 5253 5240 5230 5216 5204 5192 5180 5171 5163 5158 5154 5151 5151 5149
5516 5509 5503 5497 5491 5486 5479 5472 5465 5456 5446 5438 5428 5418 5408 5397 5385 5373 5361 5349 5337 5325 5313 5301 5286 5268 5253 5237 5223 5209 5198 5184 5171 5158 5150 5141 5136 5132 5131 5129 5129 5129 5129
5512 5505 5498 5490 5482 5475 5467 5458 5448 5439 5429 5418 5407 5396 5384 5372 5358 5345 5332 5318 5304 5289 5274 5260 5246 5230 5213 5197 5181 5166 5151 5138 5126 5119 5113 5109 5106 5105 5106 5107 5110 5112 5114
5499 5491 5482 5474 5466 5457 5448 5440 5431 5421 5411 5399 5387 5373 5360 5347 5334 5319 5302 5285 5268 5250 5232 5216 5200 5182 5166 5150 5136 5124 5113 5104 5097 5091 5087 5086 5086 5089 5091 5094 5097 5100 5103
5484 5476 5468 5460 5451 5443 5434 5424 5413 5402 5390 5378 5365 5352 5336 5319 5302 5285 5269 5252 5234 5215 5195 5177 5159 5144 5128 5114 5102 5093 5088 5082 5078 5075 5073 5073 5075 5079 5082 5085 5089 5092 5095
5471 5463 5455 5446 5437 5427 5417 5405 5392 5378 5365 5351 5336 5320 5304 5288 5272 5255 5237 5218 5199 5181 5162 5147 5132 5116 5104 5093 5083 5076 5071 5068 5066 5066 5066 5067 5069 5073 5077 5080 5084 5087 5090
5458 5449 5440 5430 5419 5408 5395 5382 5368 5355 5340 5324 5307 5291 5275 5258 5242 5224 5206 5189 5174 5158 5142 5126 5111 5098 5086 5077 5071 5066 5063 5061 5061 5061 5062 5064 5067 5070 5074 5078 5081 5085 5088
5444 5434 5424 5412 5399 5386 5372 5358 5344 5328 5313 5298 5281 5264 5248 5231 5213 5199 5185 5170 5155 5139 5122 5107 5094 5083 5075 5068 5064 5061 5059 5058 5058 5059 5060 5063 5066 5069 5073 5077 5080 5083 5086